Temp
69 69 65 63 55 51 47 51 52 52 51 52 55 56 54 50 51 47 53 58 57 58 62 65 69 69 68 68 68 68 67 67 67 67 68 68 68 68 68 68 68 68 68 68 68 69 69 69 70
65 73 63 57 49 44 47 50 51 50 53 55 58 53 53 47 51 52 52 58 59 60 61 62 68 68 68 67 67 67 67 67 66 67 67 67 67 67 67 67 67 67 67 67 67 67 67 68 68
68 72 58 52 46 45 47 50 51 53 54 53 51 55 53 48 51 51 53 59 58 57 60 64 68 67 67 67 67 66 66 66 66 66 66 66 66 66 66 66 66 66 66 66 66 66 66 66 67
65 61 58 51 47 52 52 51 54 54 53 56 53 49 52 53 55 55 56 58 53 53 58 64 67 67 66 66 66 66 65 65 65 65 65 65 65 66 65 65 65 65 65 66 66 66 65 65 66
61 56 49 45 49 51 51 54 54 52 52 52 54 50 47 52 56 56 56 57 53 52 56 60 66 66 66 65 65 65 64 64 64 64 64 64 65 65 64 64 64 64 65 65 65 65 65 65 66
56 56 46 43 49 53 52 57 56 52 51 51 53 50 47 54 55 55 56 54 56 54 56 59 65 65 65 64 64 64 63 63 63 63 63 63 64 64 64 63 64 64 64 65 65 65 65 64 64
54 50 46 47 51 51 55 55 53 53 51 51 56 48 46 51 54 56 55 54 55 55 54 54 55 60 63 63 63 63 62 62 62 62 62 63 62 62 63 62 63 63 63 64 64 64 63 63 62
55 52 46 46 50 49 54 55 54 53 51 53 56 47 42 52 55 55 54 53 53 53 53 51 51 53 52 54 62 61 61 61 61 62 62 61 59 61 61 60 62 62 62 62 62 62 62 61 60
58 47 44 48 51 50 54 53 54 55 54 52 51 50 54 56 54 51 49 49 50 53 52 51 51 52 51 51 57 60 61 60 60 59 60 54 48 50 51 58 60 60 60 60 60 60 60 58 56
52 45 47 52 50 49 54 53 54 50 50 51 49 52 55 55 52 49 47 47 48 49 50 51 51 51 52 59 51 50 53 50 50 51 50 49 48 50 53 53 58 58 58 57 58 58 57 53 49
51 48 52 52 52 52 52 52 55 50 48 52 49 49 51 49 49 48 48 48 48 50 51 52 52 51 51 52 48 48 48 48 48 49 48 48 48 45 45 44 44 43 50 45 46 45 47 47 47
48 52 52 51 50 50 49 51 50 52 52 54 55 54 51 50 48 48 48 49 49 49 51 52 52 52 50 49 49 48 48 48 47 48 49 46 43 44 44 43 43 43 42 43 42 43 45 45 47
48 49 52 50 50 50 52 49 49 51 55 55 54 53 51 50 49 49 50 50 50 50 51 51 51 51 52 50 48 48 48 47 48 48 49 47 44 43 43 43 43 42 42 42 42 43 44 45 47
50 51 51 50 51 51 48 48 49 52 54 55 52 50 49 50 51 49 50 50 51 52 51 51 52 51 52 49 49 48 47 48 47 47 48 49 45 43 43 42 43 42 42 42 41 41 41 42 44
51 47 47 49 50 49 48 46 46 52 54 53 52 51 50 50 51 51 51 51 52 52 52 52 52 52 51 50 50 48 48 49 47 47 48 48 47 45 43 42 42 41 42 42 41 42 41 41 44
47 46 42 47 49 48 47 41 51 50 52 51 51 51 51 50 52 51 52 52 52 51 52 53 58 52 51 50 49 50 48 47 46 46 46 48 48 46 43 42 41 42 42 41 40 40 39 39 40
45 37 41 46 48 47 44 43 50 51 50 50 49 49 50 50 50 51 52 51 51 51 51 51 52 51 51 50 48 48 48 47 46 45 45 47 48 47 43 42 41 42 40 39 40 39 38 38 40
35 35 39 40 45 44 42 42 50 51 51 48 47 47 48 49 50 52 52 51 51 50 50 50 50 50 50 48 47 46 45 46 45 44 45 47 46 46 43 41 41 41 39 39 39 38 38 38 38
40 35 34 41 44 41 38 41 46 50 47 45 44 44 46 48 51 51 51 50 49 48 49 49 49 49 48 45 44 43 43 44 44 44 47 46 46 45 42 40 40 40 39 38 39 38 37 36 38
39 33 34 42 43 39 37 39 43 46 43 43 45 44 45 46 48 50 49 48 48 47 48 48 49 49 47 45 44 44 43 43 43 44 45 46 46 44 44 41 39 39 37 38 37 37 35 35 37
37 33 31 33 37 38 35 35 41 44 45 47 47 46 46 47 48 49 49 46 45 46 46 48 48 47 46 46 45 44 43 42 42 42 42 44 45 44 43 41 39 38 37 36 36 36 35 32 34
33 38 36 35 27 23 33 26 35 39 42 43 42 44 44 47 47 50 48 45 45 45 45 47 47 46 46 45 44 42 41 39 41 41 41 42 45 44 43 42 40 39 37 36 35 40 35 34 32
37 38 35 33 22 21 27 20 33 40 40 41 43 45 44 44 47 46 46 48 47 45 44 44 45 45 45 44 43 40 40 40 40 40 41 41 41 43 43 42 40 38 37 36 36 35 34 34 33
41 35 34 30 27 18 23 24 29 36 38 38 41 43 46 45 45 46 46 47 44 43 43 43 44 44 44 43 42 41 39 39 38 38 37 38 38 39 41 42 39 38 37 36 35 35 34 34 34
34 30 21 22 19 23 27 24 32 37 39 41 42 40 43 43 43 43 43 43 43 42 42 44 44 43 43 42 41 41 40 38 38 37 36 36 36 36 38 39 38 36 37 37 36 35 34 33 32
30 27 23 17 21 24 28 22 32 38 40 42 44 42 44 43 44 43 43 42 43 44 43 44 43 42 42 41 41 40 40 38 37 37 37 36 36 36 38 38 37 37 37 36 35 34 33 33 32
30 26 30 19 17 21 25 32 36 39 38 40 41 42 39 40 43 43 44 43 43 42 43 43 42 42 42 42 40 40 39 38 37 38 37 37 36 39 38 37 36 36 36 36 35 33 32 33 32
29 30 25 21 15 18 25 23 27 34 36 38 38 38 41 43 43 44 44 44 43 42 42 42 42 41 41 41 40 41 39 39 39 38 37 37 37 37 37 36 36 35 35 35 34 32 33 32 32
24 20 22 26 24 18 16 23 30 29 30 30 33 37 37 37 38 40 42 43 42 42 42 42 43 43 41 41 41 39 39 40 40 38 38 37 36 37 36 36 35 35 34 34 33 32 32 32 32
25 24 23 23 20 24 25 29 32 27 25 29 30 34 35 36 37 42 40 40 39 40 43 42 41 42 40 41 41 39 40 39 37 37 37 37 36 36 35 36 35 35 34 34 33 32 35 33 31
MSLP
1012.17 1011.90 1012.19 1012.42 1013.65 1013.77 1013.29 1012.62 1012.46 1012.73 1013.04 1013.29 1013.46 1013.96 1014.83 1016.22 1017.43 1019.38 1019.81 1019.80 1020.36 1020.66 1020.77 1020.94 1021.04 1021.13 1021.24 1021.40 1021.39 1021.34 1021.42 1021.42 1021.38 1021.24 1021.01 1020.80 1020.55 1020.40 1020.10 1019.72 1019.50 1019.29 1019.03 1018.72 1018.49 1018.19 1017.92 1017.54 1017.06
1012.23 1011.89 1012.34 1012.95 1013.69 1013.95 1013.25 1012.78 1013.22 1013.49 1013.74 1013.76 1014.05 1014.94 1015.67 1017.23 1017.92 1019.24 1019.83 1019.88 1020.06 1020.57 1020.85 1021.00 1021.05 1021.21 1021.39 1021.51 1021.50 1021.48 1021.55 1021.61 1021.58 1021.46 1021.31 1021.10 1020.81 1020.57 1020.44 1020.17 1019.87 1019.61 1019.39 1019.18 1018.84 1018.54 1018.19 1017.91 1017.56
1012.31 1012.07 1012.93 1013.29 1013.57 1013.70 1013.27 1013.24 1013.69 1014.00 1013.92 1014.19 1014.84 1015.38 1016.39 1017.69 1018.37 1018.97 1019.19 1019.55 1020.15 1020.68 1020.80 1020.91 1021.06 1021.29 1021.50 1021.64 1021.67 1021.65 1021.70 1021.76 1021.72 1021.61 1021.55 1021.35 1021.13 1020.83 1020.76 1020.48 1020.10 1019.89 1019.63 1019.49 1019.19 1018.96 1018.68 1018.35 1018.01
1012.39 1012.69 1013.17 1013.13 1013.24 1012.64 1012.75 1013.37 1013.62 1014.02 1014.25 1014.41 1015.09 1016.45 1017.13 1017.67 1018.20 1018.77 1019.32 1019.49 1020.48 1020.88 1020.84 1020.92 1021.14 1021.36 1021.55 1021.67 1021.81 1021.81 1021.85 1021.87 1021.85 1021.75 1021.69 1021.50 1021.30 1021.05 1021.03 1020.70 1020.42 1020.20 1020.00 1019.70 1019.46 1019.13 1018.82 1018.71 1018.42
1012.49 1013.00 1013.57 1013.50 1012.77 1012.47 1012.65 1013.08 1013.34 1014.06 1014.38 1014.71 1015.17 1016.73 1017.77 1018.33 1018.21 1018.65 1019.21 1019.66 1020.47 1020.88 1020.94 1021.06 1021.21 1021.43 1021.55 1021.70 1021.90 1021.92 1022.04 1022.07 1022.05 1021.99 1021.86 1021.72 1021.60 1021.39 1021.19 1020.98 1020.70 1020.58 1020.25 1019.97 1019.79 1019.37 1019.09 1018.89 1018.64
1012.83 1013.26 1013.93 1013.64 1012.82 1012.49 1012.65 1012.93 1013.40 1014.03 1014.50 1014.96 1015.55 1016.88 1018.17 1018.60 1018.68 1019.06 1019.32 1019.89 1020.25 1020.81 1021.02 1021.13 1021.22 1021.45 1021.61 1021.75 1021.96 1022.06 1022.15 1022.22 1022.23 1022.17 1022.12 1021.94 1021.75 1021.63 1021.38 1021.31 1021.02 1020.84 1020.50 1020.31 1019.96 1019.67 1019.49 1019.35 1018.99
1013.02 1013.68 1013.71 1013.12 1012.81 1012.61 1012.69 1012.65 1013.34 1013.94 1014.40 1014.86 1015.18 1017.11 1018.53 1018.88 1018.80 1018.98 1019.48 1019.90 1020.29 1020.71 1021.15 1021.39 1021.49 1021.48 1021.66 1021.84 1022.08 1022.18 1022.24 1022.33 1022.42 1022.47 1022.32 1022.10 1022.03 1021.97 1021.62 1021.60 1021.22 1020.98 1020.80 1020.59 1020.25 1020.05 1019.89 1019.80 1019.55
1013.09 1013.68 1013.71 1013.14 1012.91 1012.94 1012.78 1012.98 1013.40 1013.83 1014.39 1014.40 1014.70 1016.51 1018.14 1018.33 1018.68 1018.97 1019.59 1020.02 1020.38 1020.83 1021.11 1021.47 1021.60 1021.65 1021.83 1022.02 1022.02 1022.21 1022.38 1022.42 1022.48 1022.42 1022.34 1022.34 1022.42 1022.23 1021.94 1021.85 1021.49 1021.39 1021.14 1020.98 1020.63 1020.46 1020.27 1020.05 1019.78
1012.86 1013.89 1014.22 1013.69 1013.53 1013.50 1013.23 1013.45 1013.70 1013.94 1014.28 1014.73 1015.45 1016.00 1016.24 1017.42 1018.45 1019.31 1019.87 1020.44 1020.66 1020.82 1021.00 1021.34 1021.50 1021.68 1021.90 1022.08 1022.02 1022.08 1022.28 1022.41 1022.46 1022.54 1022.50 1022.68 1022.70 1022.50 1022.37 1022.20 1021.96 1021.81 1021.59 1021.38 1021.17 1020.87 1020.53 1020.26 1020.10
1013.35 1014.22 1014.14 1014.17 1014.20 1014.24 1013.93 1013.91 1014.01 1014.33 1014.71 1015.33 1016.16 1016.76 1017.02 1017.76 1018.52 1019.25 1019.79 1020.31 1020.59 1020.83 1020.97 1021.11 1021.35 1021.54 1021.65 1021.69 1022.12 1022.24 1022.28 1022.40 1022.57 1022.67 1022.78 1022.81 1022.87 1022.70 1022.58 1022.57 1022.39 1022.29 1022.14 1022.13 1021.69 1021.29 1021.18 1020.83 1020.63
1013.62 1014.16 1014.42 1014.65 1014.71 1014.83 1014.68 1014.41 1014.30 1014.60 1014.96 1015.08 1015.86 1017.02 1017.58 1018.12 1018.71 1019.23 1019.69 1020.00 1020.20 1020.43 1020.64 1020.84 1021.08 1021.40 1021.58 1021.79 1022.22 1022.31 1022.39 1022.45 1022.69 1022.78 1022.87 1022.92 1023.11 1023.06 1022.90 1022.72 1022.79 1022.69 1022.56 1022.55 1022.12 1022.02 1021.60 1021.28 1020.95
1014.00 1014.40 1014.67 1014.94 1015.10 1015.14 1015.11 1015.10 1014.73 1014.52 1014.34 1014.38 1014.88 1015.86 1017.11 1018.02 1018.60 1019.00 1019.44 1019.78 1020.02 1020.30 1020.41 1020.65 1020.87 1021.24 1021.53 1021.82 1022.06 1022.25 1022.43 1022.52 1022.76 1022.81 1022.82 1023.01 1023.32 1023.35 1023.11 1023.14 1023.10 1022.98 1022.98 1022.64 1022.32 1022.02 1021.84 1021.52 1021.07
1014.11 1014.56 1014.82 1015.05 1015.24 1015.36 1015.37 1015.25 1015.12 1014.18 1014.03 1014.44 1014.87 1016.08 1016.79 1017.55 1018.16 1018.67 1018.93 1019.28 1019.64 1020.05 1020.24 1020.48 1020.77 1021.09 1021.38 1021.73 1022.04 1022.21 1022.37 1022.56 1022.64 1022.74 1022.88 1023.00 1023.32 1023.52 1023.47 1023.44 1023.33 1023.32 1023.12 1022.93 1022.72 1022.47 1022.26 1021.67 1021.17
1014.34 1014.63 1014.84 1015.19 1015.39 1015.43 1015.54 1015.34 1015.29 1013.58 1013.54 1014.56 1015.14 1015.80 1016.55 1017.14 1017.59 1018.27 1018.70 1019.05 1019.33 1019.68 1020.06 1020.32 1020.70 1020.96 1021.21 1021.61 1021.88 1022.09 1022.36 1022.49 1022.59 1022.79 1022.96 1023.09 1023.39 1023.59 1023.64 1023.71 1023.60 1023.56 1023.42 1023.23 1023.11 1023.04 1022.82 1022.54 1022.09
1014.55 1014.97 1015.09 1015.34 1015.52 1015.72 1015.71 1015.24 1014.62 1013.55 1013.66 1014.51 1015.26 1015.76 1016.41 1016.94 1017.40 1017.76 1018.17 1018.60 1018.88 1019.39 1019.76 1020.17 1020.46 1020.83 1021.16 1021.46 1021.71 1022.01 1022.16 1022.30 1022.61 1022.80 1022.99 1023.21 1023.43 1023.62 1023.61 1023.64 1023.66 1023.79 1023.53 1023.37 1023.28 1022.90 1022.77 1022.71 1022.21
1014.94 1015.22 1015.56 1015.52 1015.72 1015.90 1016.00 1014.91 1013.76 1013.41 1013.95 1014.71 1015.29 1015.77 1016.18 1016.65 1016.97 1017.50 1017.92 1018.32 1018.84 1019.30 1019.68 1020.00 1020.19 1020.74 1021.04 1021.34 1021.57 1021.78 1022.06 1022.36 1022.66 1022.82 1023.00 1023.17 1023.40 1023.59 1023.74 1023.85 1023.91 1023.80 1023.61 1023.51 1023.43 1023.11 1022.98 1022.76 1022.14
1015.86 1016.35 1016.38 1016.03 1016.07 1016.34 1016.36 1014.97 1014.13 1013.91 1014.27 1014.72 1015.06 1015.44 1015.78 1016.25 1016.86 1017.30 1017.78 1018.30 1018.87 1019.19 1019.58 1019.98 1020.25 1020.65 1021.00 1021.22 1021.55 1021.80 1022.02 1022.30 1022.59 1022.82 1023.10 1023.23 1023.45 1023.67 1023.85 1023.98 1024.02 1023.81 1023.87 1023.71 1023.51 1023.33 1023.37 1023.02 1022.57
1017.24 1017.43 1017.34 1017.27 1017.01 1016.90 1016.62 1015.21 1014.65 1014.32 1014.33 1014.52 1014.79 1015.19 1015.68 1016.06 1016.43 1017.03 1017.70 1018.31 1018.93 1019.37 1019.75 1020.11 1020.42 1020.73 1020.99 1021.31 1021.62 1021.95 1022.16 1022.35 1022.63 1022.98 1023.20 1023.25 1023.50 1023.73 1023.85 1023.91 1023.96 1023.97 1024.04 1023.90 1023.67 1023.58 1023.41 1023.22 1022.74
1017.76 1018.12 1018.33 1017.70 1017.75 1017.51 1016.97 1016.19 1014.77 1014.12 1013.94 1014.26 1014.57 1014.89 1015.33 1015.81 1016.25 1016.92 1017.68 1018.45 1019.23 1019.71 1020.09 1020.36 1020.67 1020.94 1021.20 1021.58 1022.01 1022.37 1022.59 1022.67 1022.94 1023.10 1023.13 1023.26 1023.45 1023.63 1023.74 1023.93 1024.01 1024.01 1024.16 1023.99 1023.69 1023.66 1023.45 1023.08 1022.79
1018.23 1018.63 1018.80 1018.24 1018.34 1018.95 1017.66 1016.32 1015.10 1014.46 1014.30 1014.29 1013.96 1014.71 1015.18 1015.92 1016.44 1017.13 1017.86 1018.53 1019.31 1020.00 1020.38 1020.71 1020.96 1021.25 1021.45 1021.63 1021.98 1022.23 1022.58 1022.82 1022.92 1023.09 1023.23 1023.27 1023.41 1023.59 1023.66 1023.86 1024.04 1024.07 1024.18 1024.06 1023.90 1023.78 1023.84 1023.69 1023.34
1018.80 1019.21 1019.71 1020.27 1019.70 1019.21 1018.80 1016.93 1015.51 1014.79 1014.56 1014.41 1014.48 1014.77 1015.17 1015.59 1016.29 1017.12 1017.76 1018.53 1019.28 1020.08 1020.59 1020.93 1021.22 1021.43 1021.58 1021.71 1021.93 1022.27 1022.48 1022.80 1023.07 1023.18 1023.32 1023.35 1023.32 1023.39 1023.49 1023.70 1023.93 1024.10 1024.20 1024.19 1024.01 1024.02 1023.98 1024.19 1023.78
1019.54 1019.75 1020.36 1020.93 1021.42 1021.56 1020.45 1019.03 1016.63 1015.47 1015.21 1015.15 1015.09 1015.30 1015.60 1015.97 1016.52 1017.00 1017.78 1018.63 1019.14 1019.78 1020.47 1020.91 1021.31 1021.61 1021.74 1021.82 1021.99 1022.27 1022.58 1022.91 1023.07 1023.13 1023.25 1023.28 1023.17 1023.25 1023.27 1023.39 1023.68 1023.91 1024.05 1024.08 1023.94 1023.69 1024.04 1024.24 1024.32
1019.88 1020.19 1020.81 1021.40 1022.50 1022.78 1021.52 1020.78 1016.88 1015.82 1015.71 1015.69 1015.59 1015.62 1015.86 1015.89 1016.35 1017.15 1017.77 1018.35 1019.02 1019.72 1020.47 1020.94 1021.39 1021.73 1021.94 1022.09 1022.23 1022.49 1022.81 1022.89 1022.97 1023.21 1023.33 1023.41 1023.32 1023.24 1023.14 1023.30 1023.62 1023.99 1024.15 1024.12 1024.13 1024.15 1024.08 1024.08 1024.28
1020.38 1020.68 1021.33 1021.99 1022.83 1023.04 1021.63 1020.82 1017.72 1016.39 1015.86 1015.80 1015.93 1015.97 1016.15 1016.26 1016.44 1017.15 1017.81 1018.53 1019.36 1019.86 1020.40 1020.78 1021.23 1021.67 1021.88 1022.05 1022.22 1022.37 1022.66 1022.89 1023.19 1023.28 1023.36 1023.38 1023.45 1023.31 1023.10 1023.14 1023.51 1023.78 1023.86 1023.88 1023.96 1024.10 1024.29 1024.31 1024.23
1021.25 1022.06 1022.81 1023.32 1023.38 1022.81 1021.61 1020.78 1017.47 1016.50 1016.18 1016.10 1016.29 1016.49 1016.67 1016.96 1017.09 1017.58 1018.28 1018.96 1019.65 1020.12 1020.48 1020.84 1021.24 1021.72 1022.00 1022.22 1022.41 1022.49 1022.65 1022.87 1023.09 1023.28 1023.47 1023.61 1023.65 1023.50 1023.30 1023.20 1023.33 1023.51 1023.54 1023.71 1023.80 1023.88 1024.03 1024.04 1024.08
1022.44 1023.04 1023.90 1024.39 1024.35 1023.21 1021.71 1020.04 1017.73 1016.83 1016.57 1016.59 1016.77 1017.15 1017.37 1017.60 1017.77 1018.21 1018.65 1019.02 1019.47 1019.90 1020.28 1020.65 1021.14 1021.63 1021.98 1022.28 1022.51 1022.59 1022.72 1022.94 1023.07 1023.24 1023.43 1023.56 1023.62 1023.51 1023.18 1023.11 1023.22 1023.27 1023.21 1023.21 1023.38 1023.56 1023.63 1023.74 1023.80
1023.45 1023.59 1023.85 1024.45 1024.82 1024.23 1021.45 1019.19 1018.06 1017.76 1017.77 1017.92 1018.23 1018.30 1018.36 1018.33 1018.46 1018.75 1018.97 1019.19 1019.63 1019.98 1020.29 1020.70 1021.30 1021.78 1022.06 1022.23 1022.39 1022.53 1022.64 1022.79 1023.00 1023.14 1023.28 1023.31 1023.23 1023.02 1022.92 1022.99 1023.02 1022.94 1022.91 1022.95 1023.02 1023.18 1023.18 1023.26 1023.31
1024.09 1024.41 1024.67 1025.14 1025.05 1023.85 1021.63 1020.20 1018.82 1018.90 1019.05 1019.54 1019.92 1019.99 1019.80 1019.66 1019.58 1019.56 1019.57 1019.67 1019.88 1020.36 1020.74 1021.12 1021.51 1022.04 1022.34 1022.46 1022.47 1022.47 1022.53 1022.62 1022.70 1022.77 1022.78 1022.75 1022.67 1022.62 1022.67 1022.68 1022.66 1022.69 1022.79 1022.82 1022.83 1022.81 1022.74 1022.81 1022.74
1025.19 1025.18 1025.21 1025.09 1024.56 1023.76 1022.74 1020.71 1019.83 1020.54 1021.04 1021.28 1021.30 1021.40 1021.12 1020.93 1021.07 1020.70 1020.17 1020.29 1020.21 1020.47 1020.95 1021.41 1021.71 1021.95 1022.20 1022.41 1022.54 1022.65 1022.70 1022.63 1022.51 1022.41 1022.33 1022.24 1022.10 1022.04 1022.14 1022.18 1022.28 1022.35 1022.26 1022.28 1022.40 1022.34 1022.25 1022.19 1022.10
1025.00 1024.76 1024.63 1024.74 1024.10 1023.39 1022.67 1020.75 1020.79 1021.32 1021.71 1021.78 1021.91 1022.14 1021.88 1021.77 1021.78 1021.46 1021.18 1021.09 1021.02 1021.26 1021.53 1021.70 1021.99 1022.13 1022.21 1022.39 1022.59 1022.67 1022.62 1022.45 1022.32 1022.18 1021.95 1021.74 1021.76 1021.64 1021.72 1021.75 1021.70 1021.71 1021.61 1021.53 1021.51 1021.52 1021.51 1021.55 1021.60
Wind_Speed
9 7 2 4 5 5 4 1 3 2 3 1 2 7 8 5 3 4 4 12 11 8 6 7 11 11 11 10 11 12 12 13 13 14 15 16 17 17 19 19 20 20 19 19 19 19 19 19 19
4 4 5 2 5 2 5 2 4 1 4 5 6 4 5 2 3 8 6 9 11 10 7 6 12 11 10 10 10 12 12 12 13 14 15 16 17 18 19 19 20 21 20 19 19 19 19 19 19
4 2 4 4 3 3 4 2 7 4 5 3 4 5 4 2 3 8 6 10 11 9 7 8 12 11 10 9 10 11 11 11 12 13 14 15 16 18 19 20 21 21 21 20 20 19 19 18 18
0 5 5 4 5 4 4 8 6 7 2 4 5 7 4 3 12 9 9 11 11 8 8 11 12 11 10 9 9 10 10 11 11 12 13 15 15 17 18 20 20 21 20 21 20 21 20 19 18
3 3 3 0 5 1 4 6 7 6 5 3 3 6 4 3 8 11 11 10 12 8 7 7 12 11 10 10 9 10 10 10 11 12 12 13 14 16 17 19 20 20 20 21 20 21 21 20 18
4 3 3 3 3 3 2 7 9 5 3 4 5 6 4 7 9 8 9 9 12 10 7 6 12 11 10 10 8 9 9 9 10 11 11 11 13 16 16 18 18 19 20 20 21 20 20 21 20
4 4 4 4 3 2 3 2 5 7 8 5 6 5 3 5 8 9 8 9 10 9 8 6 6 8 10 9 8 8 7 8 8 9 11 12 13 15 16 16 18 19 20 20 21 21 21 20 20
4 4 3 3 3 3 3 2 1 4 4 1 3 7 6 7 10 9 8 9 8 8 8 7 7 6 6 5 8 7 6 6 6 8 9 10 10 12 15 15 17 18 20 20 21 20 20 20 20
3 5 2 2 4 0 2 2 3 3 4 3 5 3 4 15 11 8 6 6 6 5 7 7 7 7 6 5 5 6 4 3 3 5 8 6 4 5 8 13 17 17 19 21 21 20 21 20 18
4 3 2 1 1 1 3 2 4 1 2 3 4 6 11 12 10 10 8 8 7 6 6 7 7 7 6 4 4 4 3 1 2 3 4 4 5 6 7 9 15 15 16 18 20 21 20 15 6
2 3 1 1 1 2 4 1 3 3 5 8 9 11 10 7 7 9 8 8 9 7 5 7 7 7 6 4 3 1 1 2 2 4 3 5 4 4 4 4 4 4 9 4 7 7 6 8 7
1 2 1 0 1 2 1 5 4 8 7 3 9 20 14 12 11 11 9 9 8 7 8 8 7 7 5 3 3 3 3 2 3 2 4 4 3 4 4 4 5 5 4 7 6 5 6 7 8
1 2 1 2 2 4 3 6 6 8 10 4 12 13 15 13 11 8 9 8 8 8 8 8 7 7 6 5 3 3 3 3 3 4 4 4 4 4 4 4 4 4 5 5 6 7 7 10 11
2 2 2 3 3 3 2 4 3 6 7 8 11 13 12 14 14 8 8 9 9 8 8 7 7 7 6 5 4 3 3 4 3 3 3 5 3 3 4 4 4 4 4 5 4 5 5 5 7
2 3 1 3 1 2 2 6 8 7 2 8 9 11 10 11 10 12 9 9 9 7 8 8 7 7 7 5 4 4 4 4 3 3 4 5 4 3 4 3 4 3 3 5 5 4 4 5 6
2 2 5 0 1 1 2 9 6 2 7 7 8 7 10 10 14 8 9 9 8 8 9 8 7 7 7 6 4 3 4 3 3 3 4 5 4 3 3 3 3 4 4 4 4 4 4 5 6
6 2 4 8 1 3 2 11 6 1 7 8 8 10 9 8 8 8 9 9 8 8 9 8 8 8 7 5 4 4 5 4 3 3 4 4 4 3 3 3 3 4 4 4 4 4 3 5 7
3 4 4 6 5 3 9 20 15 11 9 10 9 8 8 9 9 10 9 8 8 8 8 7 6 6 5 4 3 2 3 2 3 4 4 5 3 4 3 3 4 4 4 4 4 4 3 3 5
2 2 5 6 2 7 4 14 21 15 8 8 9 9 9 10 7 9 9 9 8 7 8 7 7 5 3 2 2 2 2 1 2 3 5 5 4 3 3 3 3 4 4 4 4 3 5 3 6
1 3 6 6 3 5 7 18 6 5 2 4 6 7 9 7 8 10 10 8 8 8 7 7 6 5 3 3 2 3 3 2 2 3 3 4 4 3 3 2 1 2 3 5 4 4 4 3 5
3 3 2 6 10 2 9 6 4 3 5 7 8 5 5 11 12 13 13 10 9 8 7 7 7 6 4 4 3 3 3 3 2 1 1 2 4 4 3 3 1 1 1 2 3 2 4 3 3
3 2 1 3 6 3 5 6 5 1 5 7 8 7 6 6 5 11 10 10 10 8 8 8 7 6 4 4 3 4 3 3 2 3 2 3 3 3 3 3 2 1 1 3 2 3 2 2 3
6 1 3 3 3 5 2 5 8 1 5 4 6 6 6 3 9 9 11 12 7 9 8 7 7 6 4 4 4 3 2 1 1 1 2 1 1 3 2 3 2 1 1 3 3 4 3 1 1
4 3 4 4 3 4 5 5 7 1 2 1 3 4 6 6 6 9 8 8 7 7 7 7 7 5 5 4 4 5 4 3 2 2 2 2 2 2 2 1 2 1 1 2 2 3 4 4 3
5 6 5 7 5 6 3 3 9 2 1 2 3 3 5 7 7 8 9 8 8 8 7 7 7 5 5 4 3 3 3 3 3 2 2 2 2 2 3 1 1 2 2 3 3 3 3 4 3
3 6 7 6 3 5 2 7 5 2 3 5 5 4 5 6 6 8 8 8 8 8 8 7 7 5 4 3 2 2 1 1 1 2 2 3 2 3 3 3 4 4 4 4 3 2 3 4 5
1 1 3 4 1 2 4 6 3 3 3 5 5 4 2 2 3 6 6 7 7 7 7 7 6 4 3 3 2 1 2 3 3 4 2 3 4 3 5 4 4 5 5 5 5 4 5 5 5
3 1 4 3 1 5 6 5 5 3 1 6 8 8 7 6 4 3 3 3 4 4 6 8 7 6 3 1 1 2 2 2 3 3 5 5 5 4 5 5 5 5 6 6 6 5 5 5 5
2 2 2 2 4 6 3 7 4 2 4 6 5 5 7 7 8 8 5 3 7 7 7 6 6 6 2 1 2 3 4 4 4 5 5 5 5 5 6 6 6 6 6 6 6 7 7 7 7
2 5 5 5 6 4 3 7 3 7 5 3 3 6 7 8 8 6 7 6 7 7 6 5 5 4 1 2 3 4 5 6 6 6 6 6 7 6 7 7 7 7 7 7 7 8 8 8 8
Wind_Direction
317 297 167 40 52 67 289 248 102 95 52 40 74 98 127 62 62 186 247 115 127 129 120 119 117 105 95 85 77 70 61 53 48 44 42 40 39 37 34 33 30 28 23 20 17 17 15 13 13
312 309 43 76 84 48 277 187 111 344 141 107 61 103 39 94 106 137 113 143 139 135 126 124 122 111 99 89 80 71 62 53 49 46 43 41 41 37 34 33 31 27 24 20 16 15 12 11 8
300 201 87 102 132 182 216 134 150 145 139 117 99 49 100 125 88 148 150 133 103 121 127 134 126 115 103 91 80 72 63 56 52 48 42 41 39 37 32 30 30 27 25 20 18 14 12 8 7
67 12 18 89 240 268 153 178 148 127 39 48 113 79 56 306 152 154 147 123 110 128 125 136 130 122 111 95 82 75 68 60 54 48 43 40 36 35 31 29 27 25 23 21 18 15 13 9 6
32 66 56 287 265 168 67 162 144 138 161 183 112 169 91 19 118 129 135 134 127 132 129 134 137 127 114 101 89 80 69 62 53 46 41 39 35 31 34 28 25 23 22 22 19 19 15 9 9
29 86 64 238 269 139 88 160 137 132 148 181 96 108 177 151 123 157 141 140 139 136 137 140 139 131 118 106 96 87 77 66 56 45 39 38 34 29 33 27 24 23 21 19 19 20 20 15 10
112 90 214 246 216 132 161 132 138 161 150 211 169 109 161 175 165 155 144 135 130 137 135 137 141 139 128 117 105 92 87 70 58 43 37 34 31 28 32 27 23 21 21 17 18 17 19 17 13
101 97 290 280 270 169 182 75 352 66 186 191 129 174 193 204 166 138 129 126 129 139 148 158 165 150 136 137 128 117 99 85 71 50 29 28 25 28 32 24 23 19 20 15 17 14 16 15 11
66 64 258 287 24 216 284 125 9 192 125 64 7 123 201 142 137 117 123 116 132 151 161 164 169 160 159 164 162 139 146 132 107 49 41 22 12 15 37 20 22 20 20 14 11 11 11 10 5
87 115 267 84 10 0 276 184 184 125 172 177 54 41 114 135 143 148 158 158 162 172 179 170 164 164 164 163 157 158 197 143 180 99 63 30 23 10 33 22 21 17 23 14 9 5 4 2 346
3 181 18 57 21 332 281 254 173 170 233 214 182 166 151 145 152 161 174 176 180 184 176 174 163 164 165 130 158 135 128 94 64 95 79 49 31 16 19 19 9 12 13 5 7 348 352 348 343
96 114 126 255 34 336 308 296 280 200 217 187 182 166 157 167 174 179 185 190 182 177 185 173 170 158 160 142 149 141 131 105 86 84 81 62 34 17 15 17 357 13 357 0 356 353 341 339 342
81 199 226 194 253 258 313 259 243 251 231 173 131 155 171 173 181 189 192 188 167 161 163 166 157 156 154 146 143 143 123 110 121 70 75 72 45 18 15 7 8 11 356 3 354 350 347 346 343
155 203 222 205 255 255 258 271 44 274 221 172 150 173 176 178 183 181 173 165 161 157 162 162 159 156 151 149 151 143 127 133 105 101 106 82 77 34 31 8 10 14 3 353 347 342 344 338 332
139 333 271 230 247 290 322 282 227 232 147 170 178 178 178 187 179 190 175 163 158 161 158 163 159 155 151 156 159 149 157 126 122 129 113 105 84 53 30 17 14 351 352 355 347 345 340 329 322
350 71 6 204 140 273 25 278 306 136 167 188 200 185 182 192 185 175 167 154 161 151 155 158 151 151 155 165 163 156 149 131 137 131 114 108 94 79 44 23 6 348 357 356 346 348 339 328 331
12 301 339 332 60 306 229 277 276 125 179 220 201 203 189 182 169 169 161 162 162 157 149 150 148 156 159 152 145 140 137 133 138 123 114 112 95 72 61 31 356 3 357 356 350 343 349 338 332
294 336 314 268 342 311 265 265 281 276 253 233 224 205 192 177 175 163 159 151 148 145 139 141 139 152 152 127 115 96 97 107 124 125 130 110 115 91 65 31 15 9 0 350 353 343 337 320 319
144 250 278 257 39 341 261 290 300 305 273 284 232 198 181 176 160 145 143 134 130 134 139 146 141 156 126 103 110 85 144 133 78 118 130 115 115 113 71 58 19 9 1 342 351 330 330 327 343
263 290 296 296 12 348 325 304 301 356 21 342 244 175 180 143 141 144 142 132 139 146 148 146 145 129 105 104 124 122 136 114 138 134 138 145 139 156 140 112 26 360 348 351 350 1 346 320 5
310 229 276 249 327 308 328 319 323 337 6 15 39 55 153 170 163 159 156 151 141 147 156 144 141 132 122 125 109 77 57 52 62 92 147 196 185 186 171 176 157 343 347 327 342 3 28 345 326
302 159 284 316 33 290 28 283 322 352 21 22 14 46 60 141 162 157 150 152 155 161 149 139 135 134 135 129 122 145 161 159 196 171 179 209 214 198 168 149 138 325 330 337 318 18 7 40 334
236 286 232 173 93 48 301 68 268 319 27 354 358 38 46 19 165 159 157 159 157 142 147 138 130 129 126 117 118 116 124 148 154 126 146 268 299 189 196 165 157 249 314 319 331 340 341 315 220
319 349 63 56 98 20 237 121 284 286 219 17 12 44 52 43 121 142 141 127 130 136 135 138 142 151 149 141 141 138 150 157 143 184 197 256 250 283 297 169 145 173 295 294 293 310 313 300 291
51 47 338 354 7 226 201 14 246 173 38 111 157 112 68 62 76 109 126 131 140 149 149 145 149 159 162 150 146 147 160 174 187 213 214 243 281 284 285 259 234 239 230 254 250 244 261 274 270
57 130 153 248 252 287 219 243 275 105 82 77 79 104 72 83 103 124 141 151 158 161 162 153 157 156 163 150 143 143 189 204 220 219 218 231 240 256 257 262 263 266 277 276 258 232 237 247 259
203 155 142 93 329 51 254 288 3 82 92 74 86 79 104 127 143 163 171 169 173 166 166 154 142 125 133 136 144 255 256 237 247 267 276 267 262 251 250 246 243 256 259 262 266 259 253 246 248
126 153 61 16 295 255 282 275 237 201 184 53 31 11 5 357 346 299 244 181 124 116 104 101 104 104 112 117 263 265 270 281 265 265 271 266 267 260 273 267 254 253 253 254 249 253 251 244 241
27 6 28 128 170 195 264 262 226 58 70 84 47 19 22 24 17 350 315 58 114 119 117 107 100 107 108 261 302 316 315 305 288 275 270 273 283 278 272 266 263 255 245 231 233 240 249 251 258
185 184 149 139 259 231 206 267 97 140 161 129 44 18 6 14 2 14 45 63 58 69 85 99 106 112 104 335 343 339 318 300 289 280 276 273 269 262 256 255 250 250 245 240 238 243 250 237 241